Regional Weather Roundup
Issued by NWS

Home | Current Version | Previous Version | Graphics & Text | Print | Product List | Glossary On
Versions: 1 2 3 4 5 6 7 8 9 10 11 12 13 14 15 16 17 18 19 20 21 22 23 24 25 26 27 28 29 30 31 32 33 34 35 36 37 38 39 40 41 42 43 44 45 46 47 48 49 50
034
ASUS43 KLOT 231408
RWRIL

ILLINOIS REGIONAL WEATHER ROUNDUP
NATIONAL WEATHER SERVICE CHICAGO/ROMEOVILLE IL
900 AM CDT TUE AUG 23 2016

NOTE: "FAIR" INDICATES FEW OR NO CLOUDS BELOW 12,000 FEET WITH NO
SIGNIFICANT WEATHER AND/OR OBSTRUCTIONS TO VISIBILITY.

* THESE STATIONS ARE NOT UNDER NWS QUALITY CONTROL. THEY ALSO MAY NOT
  REPORT WEATHER SUCH AS PRECIPITATION OR FOG.

ILZ001-002-007-009-015-016-024-231500-
NORTHWEST ILLINOIS

CITY           SKY/WX    TMP DP  RH WIND       PRES   REMARKS
MOLINE         MOSUNNY   70  61  73 S12       30.16R
STERLING*      SUNNY     70  63  78 VRB3      30.19R
SAVANNA*       MOSUNNY   68  61  78 S8        30.17R
$$

ILZ003-004-008-010-011-017-018-231500-
NORTH CENTRAL ILLINOIS

CITY           SKY/WX    TMP DP  RH WIND       PRES   REMARKS
ROCKFORD       MOSUNNY   69  62  78 S9        30.20R
FREEPORT*      MOSUNNY   67  61  80 S9        30.20
ROCHELLE*      MOSUNNY   67  62  85 S8        30.21R
DE KALB*       SUNNY     67  62  85 S12G17    30.22R
$$

ILZ005-006-012>014-019>023-231500-
NORTHEAST ILLINOIS

CITY           SKY/WX    TMP DP  RH WIND       PRES   REMARKS
CHICAGO-OHARE  MOSUNNY   72  59  63 S14       30.21R
CHICAGO-MIDWAY MOSUNNY   73  58  59 S12       30.22R
AURORA         SUNNY     70  62  76 S10       30.22R
LANSING*       SUNNY     70  61  72 S7        30.24R
JOLIET*        SUNNY     71  64  77 S6        30.23R
WAUKEGAN       SUNNY     72  60  66 S12       30.20R
DUPAGE AIRPORT SUNNY     71  60  68 S12       30.21R
KANKAKEE*      SUNNY     70  63  77 S6        30.25R
WHEELING       SUNNY     72  59  63 S10       30.22R
MORRIS*        SUNNY     69  62  81 S6        30.22R
ROMEOVILLE*    SUNNY     69  59  71 S7        30.23R
NORTHERLY ISL    N/A     71  57  61 S7          N/A
$$

LMZ740>746-231500-
SOUTHERN LAKE MICHIGAN

STATION/POSITION SKY/WX   TEMP    WIND        PRES    VSBY  WAVE
                          AIR SEA DIR/SP/G                  HT/PER
                          (F)     (DEG/KT/KT) (MB)    (MI)  (FT/S)
SOUTHERN BUOY              73 74  190/ 16/ 17 1022.2R         3/ 4
WILMETTE HARBOR            72 71  220/ 10/ 14   N/A           2/ 2
HARRISON CRIB              69     190/ 14/ 15   N/A
BURNHAM HARBOR             72     190/  9/ 12   N/A
CALUMET HARBOR             68     180/  7/ 11 1022.7R
BURNS HARBOR               69     180/  5/ 13 1024.0R
MICHIGAN CITY              67     140/  8/ 10   N/A
MICHIGAN CITY 6N           70 73  180/ 10/ 14   N/A           1/ 2
ST. JOSEPH                 71 74  160/ 12/ 14 1023.8R         2/ 3
$$

ILZ025>027-034>036-040-047-049-050-058-095>099-231500-
WEST-CENTRAL ILLINOIS

CITY           SKY/WX    TMP DP  RH WIND       PRES   REMARKS
QUINCY         SUNNY     71  63  75 S13       30.16S
GALESBURG*     SUNNY     69  62  79 S10       30.18R
MACOMB*        PTSUNNY   68  63  84 S7        30.20S
JACKSONVILLE*  SUNNY     72  62  71 SE8       30.20R
PITTSFIELD*    CLOUDY    71  64  80 SE7       30.19S
$$

ILZ028>032-037-038-041>044-048-051>054-059>061-231500-
CENTRAL ILLINOIS

CITY           SKY/WX    TMP DP  RH WIND       PRES   REMARKS
PONTIAC        MOSUNNY   70  65  84 S8        30.23S
BLOOMINGTON    SUNNY     69  62  78 S12       30.24R
DECATUR        SUNNY     71  62  73 S8        30.24R
PEORIA         SUNNY     70  63  78 S9        30.20R
LACON*         SUNNY     70  61  75 S6        30.20R
LINCOLN*       SUNNY     71  64  80 S7        30.22S
SPRINGFIELD    SUNNY     73  62  68 S9        30.21R
TAYLORVILLE    SUNNY     70  64  80 S8        30.22S
$$

ILZ033-039-045-046-055>057-062-063-231500-
EAST-CENTRAL ILLINOIS

CITY           SKY/WX    TMP DP  RH WIND       PRES   REMARKS
CHAMPAIGN      SUNNY     70  62  76 S10       30.25R
RANTOUL*       SUNNY     70  64  81 S8        30.25R
MATTOON        SUNNY     70  62  76 S9        30.25R
PARIS*         MOSUNNY   69  65  86 S3        30.27S
$$

ILZ079-100>102-231500-
SOUTHWEST ILLINOIS

CITY           SKY/WX    TMP DP  RH WIND       PRES   REMARKS
ALTON          PTSUNNY   70  66  88 SE6       30.22R
BELLEVILLE     CLOUDY    69  66  92 CALM      30.20R
CAHOKIA*       CLOUDY    70  63  78 S6        30.21R
SPARTA*        CLOUDY    68  65  89 SE7       30.24R
$$

ILZ064>066-069>071-074>076-080>082-084>086-088>090-092>094-231500-
SOUTH-CENTRAL ILLINOIS

CITY           SKY/WX    TMP DP  RH WIND       PRES   REMARKS
CARBONDALE     CLOUDY    69  64  84 SE3       30.24R
CAIRO*         CLOUDY    69  66  90 E5        30.23F
EFFINGHAM*     MOSUNNY   71  64  79 SE7       30.27R
MARION         CLOUDY    70  64  83 SE7       30.25R
MT. VERNON     MOSUNNY   72  63  73 SE5       30.25S
CENTRALIA*     PTSUNNY   71  65  82 SE7       30.23S
SALEM*         MOSUNNY   73  62  70 SE6       30.24R
$$

ILZ067-068-072-073-078-083-087-091-231500-
SOUTHEAST ILLINOIS

CITY           SKY/WX    TMP DP  RH WIND       PRES   REMARKS
LAWRENCEVILLE  SUNNY     72  64  76 S8        30.26S
FLORA*         SUNNY     72  65  80 S7        30.26R
FAIRFIELD*     SUNNY     72  65  79 CALM      30.25R
HARRISBURG*    CLOUDY    70  66  88 CALM      30.26R
ROBINSON*      SUNNY     69  64  86 SE5       30.27S
CARMI*         SUNNY     71  67  87 SE3       30.25S
$$

ABBREVIATIONS USED IN REMARKS
   TC - TEMPERATURE IN CELSIUS
  WCI - WIND CHILL INDEX
   HX - HEAT INDEX
  VSB - VISIBILITY
$$





USA.gov is the U.S. government's official web portal to all federal, state and local government web resources and services.